Regional Weather Roundup
Issued by NWS

Home | Current Version | Previous Version | Text Only | Print | Product List | Glossary On
Versions: 1 2 3 4 5 6 7 8 9 10 11 12 13 14 15 16 17 18 19 20 21 22 23 24 25 26 27 28 29 30 31 32 33 34 35 36 37 38 39 40 41 42 43 44 45 46 47 48 49 50
000
ASUS45 KREV 192110
RWRNV
NEVADA REGIONAL WEATHER ROUNDUP
NATIONAL WEATHER SERVICE RENO NV
200 PM PDT SUN APR 19 2015

NOTE: "FAIR" INDICATES FEW OR NO CLOUDS BELOW 12,000 FEET WITH NO
SIGNIFICANT WEATHER AND/OR OBSTRUCTIONS TO VISIBILITY.

NVZ001-003-004-192200-
WESTERN NEVADA

CITY           SKY/WX    TMP DP  RH WIND       PRES   REMARKS
RENO           MOSUNNY   73   9   8 VRB5      30.04F
CARSON CITY    FAIR      72  10   9 SE7       30.05F
MINDEN         FAIR      68  16  13 CALM      30.06
SLIDE MTN        N/A     46  21  36 SE12        N/A
PYRAMID LAKE     N/A     63 N/A N/A N3          N/A
FALLON         MOSUNNY   71   3   7 NW8       30.04F
LOVELOCK       SUNNY     73   8   8 MISG      30.04F
HAWTHORNE      SUNNY     72  14  11 NW13      30.03F
$$

NVZ002-CAZ072-073-192200-
NORTHERN AND CENTRAL SIERRA

CITY           SKY/WX    TMP DP  RH WIND       PRES   REMARKS
S. LAKE TAHOE  SUNNY     66  18  15 NE10      30.10F
TRUCKEE        MOSUNNY   66  19  16 S8        30.09F
SQUAW VLY 8000   N/A     52  19  28 E3          N/A
SUSANVILLE     SUNNY    N/A N/A N/A CALM        N/A
BLUE CANYON    SUNNY     69  28  21 W13       30.06F
MAMMOTH LAKES  FAIR      66  14  13 SE8       30.10F
BRIDGEPORT     FAIR      68  14  12 MISG      30.06F
$$

NVZ030-031-036-192200-
NORTHERN NEVADA

CITY           SKY/WX    TMP DP  RH WIND       PRES   REMARKS
ELKO           SUNNY     66  16  14 W5        30.04F
WINNEMUCCA     SUNNY     68  13  12 SW3       30.07F
WENDOVER       MOSUNNY   68  19  15 SE10      30.01F
$$

NVZ035-037-192200-
CENTRAL NEVADA

CITY           SKY/WX    TMP DP  RH WIND       PRES   REMARKS
ELY            SUNNY     68   8   9 N14G23    30.05F
EUREKA           N/A     66   6   9 N6        30.08F
$$

NVZ013-014-192200-
SOUTH CENTRAL NEVADA

CITY           SKY/WX    TMP DP  RH WIND       PRES   REMARKS
TONOPAH        SUNNY     72   1   6 NW14      30.04F
$$

NVZ017-020-022-192200-
SOUTHERN NEVADA

CITY           SKY/WX    TMP DP  RH WIND       PRES   REMARKS
LAS VEGAS      MOSUNNY   86  17   8 VRB5      29.84F
N. LAS VEGAS   SUNNY     84  11   6 VRB6      29.86F
NELLIS AFB     SUNNY     85  18   8 SW6       29.84F
HENDERSON      SUNNY     84  21  10 NE7       29.90F
MERCURY        SUNNY     83  14   7 VRB7      29.90F
$$


USA.gov is the U.S. government's official web portal to all federal, state and local government web resources and services.